OPTICUBE 04

Last updated on Mon Sep 21 2026 00:03:44 GMT+0000 (Coordinated Universal Time)

1 41851U 16067D 26263.04942596 .00001151 00000+0 75086-4 0 9994 2 41851 98.0576 120.2545 0016009 151.9131 208.2964 15.09986355539483
UTC large
Height (km)
Speed (km/s)
/
Latitude / Longitude
Inclination (degrees)
Orbital Period (minutes)
Azimuth
Elevation
Range (km)
Doppler Factor

Next 0 passes for location: London (51.5072 / 0.1276)

No passes found over London.
OPTICUBE 04